Location: Palombina Nuova
(43.6167°N, 13.4000°E)
Time: 17:07:01
(UTC+00:00)

Cosmos 1140 Rocket - Pass Details

Date: 17 February 2020
Orbit: 745 x 766 km, 74.1° (Epoch: 06 April)

Event Time Altitude Azimuth Distance (km) Brightness Sun altitude
Rises 04:51:25 0° 198° (SSW) 3,214 6.6 -13.6°
Reaches altitude 10° 04:53:46 10° 199° (SSW) 2,295 5.8 -13.2°
Maximum altitude 04:58:59 90° 124° (SE) 773 3.5 -12.2°
Drops below altitude 10° 05:04:16 10° 21° (NNE) 2,314 6.2 -11.3°
Sets 05:06:39 0° 21° (NNE) 3,244 6.9 -10.8°
